Location: Bonny Doon Airfield
(37.0704°N, 122.1252°W)
Time: 17:59:43
(UTC-08:00)

Vanguard 1 Rocket - Pass Details

Date: 26 October 2017
Orbit: 655 x 4222 km, 34.3° (Epoch: 22 November)

Event Time Altitude Azimuth Distance (km) Brightness Sun altitude
Rises 03:38:36 0° 212° (SSW) 7,842 - -45.6°
Reaches altitude 10° 03:45:42 10° 202° (SSW) 6,290 - -44.3°
Exits shadow 03:54:20 23° 180° (S) 4,431 10.6 -42.7°
Maximum altitude 03:59:26 28° 153° (SSE) 3,627 10.4 -41.7°
Drops below altitude 10° 04:07:54 10° 100° (E) 3,822 11.1 -40.1°
Sets 04:10:54 0° 88° (E) 4,413 11.8 -39.5°
